Jackson, TN

8:48 AM CDT on June 26, 2017 (GMT -0500)
McKellar-Sipes Regional

Weather History for KMKL - August, 2013

Change the Weather History Date:

Saturday, August 24, 2013

  Actual Average Record
Temperature  
Mean Temperature 79 °F 78 °F  
Max Temperature 90 °F 90 °F 104 °F (1983)
Min Temperature 68 °F 66 °F 53 °F (1997)
Degree Days  
Heating Degree Days 0 0  
Month to date heating degree days 0 0  
Since 1 June heating degree days 0 2  
Since 1 July heating degree days 0 0  
Cooling Degree Days 14 13  
Month to date cooling degree days 273 331  
Year to date cooling degree days 1182 1334  
Since 1 June cooling degree days 982 1119  
Growing Degree Days 29 (Base 50)    
Moisture  
Dew Point 70 °F    
Average Humidity 77    
Maximum Humidity 97    
Minimum Humidity 56    
Precipitation  
Precipitation 0.00 in 0.09 in 1.66 in (2002)
Month to date precipitation 1.71 2.44  
Year to date precipitation 45.07 35.31  
Snow  
Snow 0.00 in 0.00 in - ()
Month to date snowfall 0.0 0.0  
Since 1 June snowfall 0.0 0.0  
Since 1 July snowfall 0.0 0.0  
Snow Depth 0.00 in    
Sea Level Pressure  
Sea Level Pressure 30.11 in    
Wind  
Wind Speed 4 mph (East)    
Max Wind Speed 12 mph    
Max Gust Speed 15 mph    
Visibility 6 miles    
Events Fog    
T = Trace of Precipitation, MM = Missing Value Source: NWS Daily Summary

Daily Weather History Graph

Daily Weather History Graph

Search for Another Location

Airport or City:

Trip Planner

Search our weather history database for the weather conditions in past years. The results will help you decide how hot, cold, wet, or windy it might be!

Date:

Astronomy

Aug. 24, 2013 Rise Set
Actual Time 6:21 AM CDT 7:33 PM CDT
Civil Twilight 5:55 AM CDT 7:59 PM CDT
Nautical Twilight 5:23 AM CDT 8:31 PM CDT
Astronomical Twilight 4:51 AM CDT 9:03 PM CDT
Moon 9:38 PM CDT (8/24) 10:11 AM CDT (8/24)
Length of Visible Light 14h 04m
Length of Day
13h 11m
Waning Gibbous, 84% of the Moon is Illuminated
Aug 24
Waning Gibbous
Aug 28
Last Quarter
Sep 5
New
Sep 12
First Quarter
Sep 19
Full

Hourly Weather History & Observations

Time (CDT) Temp. Heat Index Dew Point Humidity Pressure Visibility Wind Dir Wind Speed Gust Speed Precip Events Conditions
12:53 AM 73.0 °F - 70.0 °F 90% 30.06 in 9.0 mi ENE 3.5 mph - N/A   Clear
1:53 AM 72.0 °F - 70.0 °F 93% 30.06 in 5.0 mi Calm Calm - N/A   Clear
2:40 AM 71.6 °F - 69.8 °F 94% 30.08 in 1.8 mi Calm Calm - N/A   Clear
2:53 AM 71.1 °F - 69.1 °F 93% 30.06 in 1.2 mi Calm Calm - N/A   Clear
2:56 AM 71.6 °F - 69.8 °F 94% 30.08 in 3.0 mi Calm Calm - N/A   Clear
3:50 AM 69.8 °F - 69.8 °F 100% 30.09 in 2.0 mi Calm Calm - N/A   Clear
3:53 AM 71.1 °F - 69.1 °F 93% 30.07 in 2.5 mi Calm Calm - N/A   Clear
4:00 AM 71.6 °F - 69.8 °F 94% 30.09 in 6.0 mi East 3.5 mph - N/A   Clear
4:53 AM 71.1 °F - 69.1 °F 93% 30.08 in 6.0 mi Calm Calm - N/A   Clear
5:36 AM 69.8 °F - 69.8 °F 100% 30.10 in 1.5 mi Calm Calm - N/A   Clear
5:44 AM 69.8 °F - 68.0 °F 94% 30.10 in 0.8 mi Calm Calm - N/A   Mist
5:53 AM 69.1 °F - 68.0 °F 96% 30.09 in 0.5 mi Calm Calm - N/A Fog Fog
5:57 AM 69.8 °F - 68.0 °F 94% 30.11 in 1.2 mi Calm Calm - N/A   Partly Cloudy
6:02 AM 69.8 °F - 68.0 °F 94% 30.11 in 3.0 mi Calm Calm - N/A   Partly Cloudy
6:11 AM 69.8 °F - 66.2 °F 88% 30.11 in 1.5 mi Calm Calm - N/A   Partly Cloudy
6:14 AM 69.8 °F - 66.2 °F 88% 30.11 in 0.8 mi Calm Calm - N/A   Mist
6:29 AM 69.8 °F - 68.0 °F 94% 30.12 in 0.2 mi ENE 3.5 mph - N/A Fog Fog
6:49 AM 69.8 °F - 68.0 °F 94% 30.12 in 1.0 mi Calm Calm - N/A   Mist
6:51 AM 69.8 °F - 68.0 °F 94% 30.13 in 2.0 mi Calm Calm - N/A   Partly Cloudy
6:53 AM 70.0 °F - 69.1 °F 97% 30.11 in 2.5 mi Calm Calm - N/A   Partly Cloudy
7:02 AM 69.8 °F - 69.8 °F 100% 30.13 in 3.0 mi Calm Calm - N/A   Partly Cloudy
7:53 AM 73.9 °F - 71.1 °F 91% 30.14 in 6.0 mi Calm Calm - N/A   Clear
8:53 AM 77.0 °F - 72.0 °F 84% 30.14 in 8.0 mi East 6.9 mph - N/A   Clear
9:53 AM 81.0 °F 85.8 °F 73.0 °F 77% 30.15 in 10.0 mi ESE 6.9 mph - N/A   Clear
10:53 AM 84.0 °F 90.2 °F 73.0 °F 69% 30.16 in 10.0 mi ESE 6.9 mph - N/A   Clear
11:53 AM 87.1 °F 95.4 °F 73.9 °F 65% 30.14 in 10.0 mi East 6.9 mph - N/A   Clear
12:53 PM 89.1 °F 98.0 °F 73.9 °F 61% 30.14 in 10.0 mi East 5.8 mph - N/A   Scattered Clouds
1:53 PM 89.1 °F 95.0 °F 71.1 °F 55% 30.13 in 10.0 mi East 6.9 mph - N/A   Scattered Clouds
2:53 PM 89.1 °F 96.0 °F 72.0 °F 57% 30.12 in 10.0 mi NE 6.9 mph - N/A   Partly Cloudy
3:53 PM 89.1 °F 96.0 °F 72.0 °F 57% 30.11 in 10.0 mi East 8.1 mph - N/A   Clear
4:53 PM 88.0 °F 93.8 °F 71.1 °F 57% 30.10 in 10.0 mi ENE 10.4 mph - N/A   Clear
5:53 PM 86.0 °F 91.5 °F 71.1 °F 61% 30.10 in 10.0 mi East 5.8 mph - N/A   Partly Cloudy
6:53 PM 84.0 °F 89.0 °F 71.1 °F 65% 30.11 in 10.0 mi East 4.6 mph - N/A   Clear
7:53 PM 80.1 °F 83.6 °F 71.1 °F 74% 30.12 in 10.0 mi East 3.5 mph - N/A   Clear
8:53 PM 77.0 °F - 71.1 °F 82% 30.14 in 10.0 mi Calm Calm - N/A   Clear
9:53 PM 75.0 °F - 71.1 °F 87% 30.15 in 10.0 mi Calm Calm - N/A   Clear
10:53 PM 72.0 °F - 70.0 °F 93% 30.16 in 9.0 mi Calm Calm - N/A   Clear
11:53 PM 73.0 °F - 70.0 °F 90% 30.16 in 10.0 mi ENE 3.5 mph - N/A   Clear